User: anonymous   Login
Location: Azul
(36.7830°S, 59.8500°W)
Time: 02:11:12
(UTC-03:00)
Language:

CUBESAT XI-V - Orbit

View from above orbital plane
View from above orbital plane
View from above satellite
View from above satellite

Ground track
Ground track

The orbit data is extracted from the following two-line orbital elements,

1 28895U 05043F   21295.35055617  .00000269  00000-0  60363-4 0  9994
2 28895  98.0770  65.9483 0017107 166.7634 193.4021 14.63983510852576
Epoch (UTC): 22 October 2021 08:24:48
Eccentricity: 0.0017107
inclination: 98.0770°
perigee height: 668 km
apogee height: 692 km
right ascension of ascending node: 65.9483°
argument of perigee: 166.7634°
revolutions per day: 14.63983510
mean anomaly at epoch: 193.4021°
orbit number at epoch: 85257

The dashed part of the orbit path shows where the satellite is in the earth's shadow,  

DLR